Datum;Richtung;Anzahl Messungen;Anzahl Fahrzeuge;Durchschnittsgeschwindigkeit;Höchstgeschwindigkeit
03/06/2020 12:00;1;169;169;32.18;51.00
03/06/2020 12:30;1;197;197;30.87;50.00
03/06/2020 13:00;1;184;184;33.17;54.00
03/06/2020 13:30;1;180;180;32.31;53.00
03/06/2020 14:00;1;211;211;32.24;53.00
03/06/2020 14:30;1;198;198;32.02;57.00
03/06/2020 15:00;1;211;211;32.22;56.00
03/06/2020 15:30;1;197;197;33.45;53.00
03/06/2020 16:00;1;214;214;31.33;51.00
03/06/2020 16:30;1;220;220;35.16;54.00
03/06/2020 17:00;1;207;207;33.44;64.00
03/06/2020 17:30;1;182;182;35.30;54.00
03/06/2020 18:00;1;194;194;34.81;55.00
03/06/2020 18:30;1;192;192;33.77;55.00
03/06/2020 19:00;1;179;179;34.36;77.00
03/06/2020 19:30;1;147;147;33.81;55.00
03/06/2020 20:00;1;144;144;35.93;52.00
03/06/2020 20:30;1;112;112;35.34;51.00
03/06/2020 21:00;1;113;113;38.94;67.00
03/06/2020 21:30;1;87;87;37.55;58.00
03/06/2020 22:00;1;91;91;38.62;97.00
03/06/2020 22:30;1;62;62;37.77;63.00
03/06/2020 23:00;1;53;53;38.75;77.00
03/06/2020 23:30;1;36;36;40.47;99.00
04/06/2020 00:00;1;37;37;35.78;48.00
04/06/2020 00:30;1;27;27;44.26;66.00
04/06/2020 01:00;1;12;12;33.17;50.00
04/06/2020 01:30;1;7;7;46.86;56.00
04/06/2020 02:00;1;15;15;39.13;53.00
04/06/2020 02:30;1;2;2;42.00;43.00
04/06/2020 03:00;1;4;4;42.50;49.00
04/06/2020 03:30;1;11;11;46.73;63.00
04/06/2020 04:00;1;6;6;40.67;49.00
04/06/2020 04:30;1;19;19;40.05;49.00
04/06/2020 05:00;1;19;19;40.53;67.00
04/06/2020 05:30;1;49;49;38.61;50.00
04/06/2020 06:00;1;76;76;39.37;54.00
04/06/2020 06:30;1;107;107;37.79;50.00
04/06/2020 07:00;1;132;132;37.76;58.00
04/06/2020 07:30;1;159;159;35.28;50.00
04/06/2020 08:00;1;158;158;33.48;63.00
04/06/2020 08:30;1;156;156;30.63;48.00
04/06/2020 09:00;1;174;174;33.24;51.00
04/06/2020 09:30;1;184;184;32.52;54.00
04/06/2020 10:00;1;183;183;32.32;49.00
04/06/2020 10:30;1;209;209;32.38;50.00
04/06/2020 11:00;1;197;197;31.38;49.00
04/06/2020 11:30;1;191;191;33.33;50.00
04/06/2020 12:00;1;201;201;31.41;54.00
04/06/2020 12:30;1;185;185;33.51;54.00
04/06/2020 13:00;1;224;224;32.46;50.00
04/06/2020 13:30;1;200;200;32.13;49.00
04/06/2020 14:00;1;220;220;33.25;55.00
04/06/2020 14:30;1;224;224;32.69;64.00
04/06/2020 15:00;1;211;211;32.05;50.00
04/06/2020 15:30;1;218;218;32.77;53.00
04/06/2020 16:00;1;215;215;33.85;52.00
04/06/2020 16:30;1;245;245;33.41;90.00
04/06/2020 17:00;1;219;219;33.04;61.00
04/06/2020 17:30;1;236;236;33.52;52.00
04/06/2020 18:00;1;204;204;34.56;57.00
04/06/2020 18:30;1;177;177;35.63;50.00
04/06/2020 19:00;1;178;178;34.74;55.00
04/06/2020 19:30;1;137;137;34.80;56.00
04/06/2020 20:00;1;141;141;36.49;56.00
04/06/2020 20:30;1;118;118;36.39;70.00
04/06/2020 21:00;1;92;92;38.61;62.00
04/06/2020 21:30;1;73;73;36.90;58.00
04/06/2020 22:00;1;87;87;38.49;86.00
04/06/2020 22:30;1;57;57;38.35;55.00
04/06/2020 23:00;1;42;42;39.83;63.00
04/06/2020 23:30;1;52;52;39.94;54.00
05/06/2020 00:00;1;26;26;38.81;63.00
05/06/2020 00:30;1;15;15;39.20;48.00
05/06/2020 01:00;1;15;15;41.40;56.00
05/06/2020 01:30;1;4;4;42.25;55.00
05/06/2020 02:00;1;8;8;38.00;58.00
05/06/2020 02:30;1;3;3;44.00;48.00
05/06/2020 03:00;1;5;5;52.20;68.00
05/06/2020 03:30;1;5;5;41.40;46.00
05/06/2020 04:00;1;6;6;35.50;43.00
05/06/2020 04:30;1;15;15;42.13;63.00
05/06/2020 05:00;1;18;18;36.89;50.00
05/06/2020 05:30;1;54;54;40.31;51.00
05/06/2020 06:00;1;72;72;36.58;60.00
05/06/2020 06:30;1;91;91;36.51;48.00
05/06/2020 07:00;1;112;112;37.66;58.00
05/06/2020 07:30;1;140;140;35.41;52.00
05/06/2020 08:00;1;161;161;36.02;50.00
05/06/2020 08:30;1;141;141;33.67;62.00
05/06/2020 09:00;1;161;161;32.96;65.00
05/06/2020 09:30;1;165;165;32.53;53.00
05/06/2020 10:00;1;199;199;32.35;53.00
05/06/2020 10:30;1;202;202;32.51;49.00
05/06/2020 11:00;1;182;182;32.38;56.00
05/06/2020 11:30;1;230;230;33.26;50.00
05/06/2020 12:00;1;207;207;31.89;54.00
05/06/2020 12:30;1;202;202;33.57;71.00
05/06/2020 13:00;1;200;200;34.48;52.00
05/06/2020 13:30;1;195;195;31.61;51.00
05/06/2020 14:00;1;199;199;33.94;57.00
05/06/2020 14:30;1;197;197;32.55;52.00
05/06/2020 15:00;1;170;170;33.08;49.00
05/06/2020 15:30;1;226;226;34.32;73.00
05/06/2020 16:00;1;165;165;32.64;49.00
05/06/2020 16:30;1;206;206;33.96;59.00
05/06/2020 17:00;1;219;219;34.16;49.00
05/06/2020 17:30;1;206;206;34.97;59.00
05/06/2020 18:00;1;189;189;34.74;54.00
05/06/2020 18:30;1;177;177;36.56;60.00
05/06/2020 19:00;1;176;176;34.20;52.00
05/06/2020 19:30;1;153;153;36.96;56.00
05/06/2020 20:00;1;128;128;35.10;65.00
05/06/2020 20:30;1;96;96;36.06;55.00
05/06/2020 21:00;1;110;110;38.15;73.00
05/06/2020 21:30;1;89;89;40.47;88.00
05/06/2020 22:00;1;79;79;38.92;68.00
05/06/2020 22:30;1;67;67;39.61;66.00
05/06/2020 23:00;1;56;56;42.77;117.00
05/06/2020 23:30;1;26;26;38.04;56.00
06/06/2020 00:00;1;29;29;38.83;61.00
06/06/2020 00:30;1;25;25;39.36;71.00
06/06/2020 01:00;1;22;22;36.91;46.00
06/06/2020 01:30;1;21;21;41.52;64.00
06/06/2020 02:00;1;14;14;39.57;58.00
06/06/2020 02:30;1;11;11;40.27;47.00
06/06/2020 03:00;1;15;15;46.80;64.00
06/06/2020 03:30;1;10;10;51.40;68.00
06/06/2020 04:00;1;4;4;40.25;47.00
06/06/2020 04:30;1;12;12;41.00;56.00
06/06/2020 05:00;1;9;9;38.11;62.00
06/06/2020 05:30;1;26;26;41.81;66.00
06/06/2020 06:00;1;28;28;34.89;50.00
06/06/2020 06:30;1;43;43;38.74;56.00
06/06/2020 07:00;1;55;55;37.60;49.00
06/06/2020 07:30;1;76;76;33.37;69.00
06/06/2020 08:00;1;94;94;35.57;56.00
06/06/2020 08:30;1;124;124;34.31;54.00
06/06/2020 09:00;1;122;122;34.14;48.00
06/06/2020 09:30;1;153;153;33.32;57.00
06/06/2020 10:00;1;146;146;35.98;63.00
06/06/2020 10:30;1;194;194;35.12;63.00
06/06/2020 11:00;1;193;193;34.27;52.00
06/06/2020 11:30;1;184;184;35.79;57.00
06/06/2020 12:00;1;196;196;32.92;48.00
06/06/2020 12:30;1;200;200;34.48;54.00
06/06/2020 13:00;1;205;205;34.80;53.00
06/06/2020 13:30;1;188;188;35.89;64.00
06/06/2020 14:00;1;172;172;35.92;52.00
06/06/2020 14:30;1;176;176;35.80;94.00
06/06/2020 15:00;1;192;192;33.98;53.00
06/06/2020 15:30;1;161;161;35.81;52.00
06/06/2020 16:00;1;192;192;35.68;55.00
06/06/2020 16:30;1;146;146;34.47;67.00
06/06/2020 17:00;1;185;185;35.01;57.00
06/06/2020 17:30;1;177;177;34.77;63.00
06/06/2020 18:00;1;171;171;34.47;67.00
06/06/2020 18:30;1;146;146;35.60;62.00
06/06/2020 19:00;1;164;164;34.93;50.00
06/06/2020 19:30;1;112;112;37.42;69.00
06/06/2020 20:00;1;136;136;35.82;56.00
06/06/2020 20:30;1;115;115;35.95;55.00
06/06/2020 21:00;1;96;96;37.20;77.00
06/06/2020 21:30;1;89;89;39.52;93.00
06/06/2020 22:00;1;79;79;38.96;64.00
06/06/2020 22:30;1;56;56;39.96;92.00
06/06/2020 23:00;1;54;54;37.89;55.00
06/06/2020 23:30;1;55;55;41.27;58.00
07/06/2020 00:00;1;42;42;40.12;61.00
07/06/2020 00:30;1;39;39;41.18;56.00
07/06/2020 01:00;1;28;28;40.79;61.00
07/06/2020 01:30;1;22;22;39.95;63.00
07/06/2020 02:00;1;24;24;40.79;53.00
07/06/2020 02:30;1;18;18;40.17;68.00
07/06/2020 03:00;1;15;15;39.33;55.00
07/06/2020 03:30;1;8;8;43.00;52.00
07/06/2020 04:00;1;6;6;46.83;54.00
07/06/2020 04:30;1;4;4;42.75;55.00
07/06/2020 05:00;1;9;9;34.11;44.00
07/06/2020 05:30;1;15;15;38.20;46.00
07/06/2020 06:00;1;14;14;41.21;52.00
07/06/2020 06:30;1;26;26;37.19;49.00
07/06/2020 07:00;1;21;21;40.05;52.00
07/06/2020 07:30;1;17;17;37.47;48.00
07/06/2020 08:00;1;35;35;38.06;54.00
07/06/2020 08:30;1;47;47;39.04;48.00
07/06/2020 09:00;1;68;68;39.19;50.00
07/06/2020 09:30;1;66;66;37.85;54.00
07/06/2020 10:00;1;75;75;39.99;57.00
07/06/2020 10:30;1;105;105;38.54;59.00
07/06/2020 11:00;1;92;92;36.18;48.00
07/06/2020 11:30;1;95;95;37.02;51.00
07/06/2020 12:00;1;118;118;39.70;64.00
07/06/2020 12:30;1;105;105;37.76;62.00
07/06/2020 13:00;1;102;102;38.59;55.00
07/06/2020 13:30;1;109;109;38.96;56.00
07/06/2020 14:00;1;139;139;38.50;53.00
07/06/2020 14:30;1;129;129;38.95;56.00
07/06/2020 15:00;1;119;119;37.66;66.00
07/06/2020 15:30;1;120;120;38.99;62.00
07/06/2020 16:00;1;136;136;37.75;58.00
07/06/2020 16:30;1;129;129;38.10;52.00
07/06/2020 17:00;1;144;144;38.71;81.00
07/06/2020 17:30;1;142;142;37.30;64.00
07/06/2020 18:00;1;138;138;37.23;64.00
07/06/2020 18:30;1;138;138;39.13;75.00
07/06/2020 19:00;1;137;137;38.53;64.00
07/06/2020 19:30;1;114;114;38.46;63.00
07/06/2020 20:00;1;117;117;38.99;62.00
07/06/2020 20:30;1;91;91;39.60;56.00
07/06/2020 21:00;1;97;97;39.47;55.00
07/06/2020 21:30;1;69;69;38.25;69.00
07/06/2020 22:00;1;88;88;40.20;65.00
07/06/2020 22:30;1;67;67;36.75;51.00
07/06/2020 23:00;1;54;54;39.20;80.00
07/06/2020 23:30;1;37;37;42.03;60.00
08/06/2020 00:00;1;24;24;36.88;61.00
08/06/2020 00:30;1;21;21;39.19;56.00
08/06/2020 01:00;1;15;15;39.73;77.00
08/06/2020 01:30;1;7;7;45.43;60.00
08/06/2020 02:00;1;9;9;37.67;44.00
08/06/2020 02:30;1;4;4;38.25;49.00
08/06/2020 03:00;1;2;2;22.00;24.00
08/06/2020 03:30;1;3;3;40.33;45.00
08/06/2020 04:00;1;5;5;39.20;42.00
08/06/2020 04:30;1;14;14;43.07;55.00
08/06/2020 05:00;1;18;18;34.06;48.00
08/06/2020 05:30;1;60;60;40.38;55.00
08/06/2020 06:00;1;73;73;38.12;54.00
08/06/2020 06:30;1;104;104;37.62;53.00
08/06/2020 07:00;1;111;111;37.89;54.00
08/06/2020 07:30;1;147;147;35.18;64.00
08/06/2020 08:00;1;140;140;35.47;50.00
08/06/2020 08:30;1;171;171;34.12;59.00
08/06/2020 09:00;1;163;163;34.01;54.00
08/06/2020 09:30;1;169;169;32.65;53.00
08/06/2020 10:00;1;204;204;32.98;55.00
08/06/2020 10:30;1;200;200;32.03;48.00
08/06/2020 11:00;1;186;186;33.56;59.00
08/06/2020 11:30;1;186;186;32.45;46.00
08/06/2020 12:00;1;169;169;34.36;50.00
08/06/2020 12:30;1;205;205;34.17;68.00
08/06/2020 13:00;1;199;199;33.63;51.00
08/06/2020 13:30;1;200;200;33.45;51.00
08/06/2020 14:00;1;190;190;33.53;49.00
08/06/2020 14:30;1;182;182;32.39;53.00
08/06/2020 15:00;1;215;215;32.93;63.00
08/06/2020 15:30;1;214;214;34.15;51.00
08/06/2020 16:00;1;227;227;32.78;51.00
08/06/2020 16:30;1;222;222;32.92;55.00
08/06/2020 17:00;1;198;198;33.77;49.00
08/06/2020 17:30;1;206;206;33.75;57.00
08/06/2020 18:00;1;182;182;35.36;73.00
08/06/2020 18:30;1;173;173;34.42;54.00
08/06/2020 19:00;1;162;162;34.42;51.00
08/06/2020 19:30;1;135;135;34.99;57.00
08/06/2020 20:00;1;108;108;35.27;59.00
08/06/2020 20:30;1;106;106;35.18;58.00
08/06/2020 21:00;1;89;89;35.83;50.00
08/06/2020 21:30;1;79;79;36.96;72.00
08/06/2020 22:00;1;80;80;37.25;75.00
08/06/2020 22:30;1;63;63;38.29;52.00
08/06/2020 23:00;1;33;33;39.94;64.00
08/06/2020 23:30;1;31;31;39.61;58.00
09/06/2020 00:00;1;29;29;39.97;51.00
09/06/2020 00:30;1;14;14;40.71;60.00
09/06/2020 01:00;1;15;15;39.33;67.00
09/06/2020 01:30;1;9;9;44.11;52.00
09/06/2020 02:00;1;9;9;38.11;46.00
09/06/2020 02:30;1;4;4;49.50;56.00
09/06/2020 03:00;1;4;4;36.25;50.00
09/06/2020 03:30;1;7;7;39.00;43.00
09/06/2020 04:00;1;7;7;47.29;62.00
09/06/2020 04:30;1;13;13;41.00;49.00
09/06/2020 05:00;1;23;23;34.87;51.00
09/06/2020 05:30;1;54;54;38.74;51.00
09/06/2020 06:00;1;69;69;38.51;53.00
09/06/2020 06:30;1;91;91;37.05;53.00
09/06/2020 07:00;1;130;130;38.32;55.00
09/06/2020 07:30;1;150;150;35.03;51.00
09/06/2020 08:00;1;145;145;35.59;50.00
09/06/2020 08:30;1;175;175;32.77;57.00
09/06/2020 09:00;1;146;146;34.42;51.00
09/06/2020 09:30;1;160;160;32.36;48.00
09/06/2020 10:00;1;194;194;32.85;49.00
09/06/2020 10:30;1;192;192;32.36;48.00
09/06/2020 11:00;1;182;182;30.62;52.00
09/06/2020 11:30;1;192;192;30.48;56.00
09/06/2020 12:00;1;185;185;32.97;54.00
09/06/2020 12:30;1;198;198;34.17;60.00
09/06/2020 13:00;1;184;184;33.82;53.00
09/06/2020 13:30;1;206;206;32.90;50.00
09/06/2020 14:00;1;209;209;33.49;54.00
09/06/2020 14:30;1;209;209;32.48;65.00
09/06/2020 15:00;1;216;216;33.38;51.00
09/06/2020 15:30;1;224;224;33.18;70.00
09/06/2020 16:00;1;253;253;34.40;65.00
09/06/2020 16:30;1;224;224;32.59;57.00
09/06/2020 17:00;1;195;195;32.76;65.00
09/06/2020 17:30;1;213;213;32.51;54.00
09/06/2020 18:00;1;201;201;35.24;56.00
09/06/2020 18:30;1;211;211;35.78;55.00
09/06/2020 19:00;1;160;160;36.34;74.00
09/06/2020 19:30;1;139;139;35.23;55.00
09/06/2020 20:00;1;140;140;34.72;56.00
09/06/2020 20:30;1;98;98;36.07;63.00
09/06/2020 21:00;1;97;97;36.67;57.00
09/06/2020 21:30;1;92;92;37.35;73.00
09/06/2020 22:00;1;55;55;38.07;55.00
09/06/2020 22:30;1;79;79;38.90;62.00
09/06/2020 23:00;1;50;50;38.92;73.00
09/06/2020 23:30;1;37;37;40.68;58.00
10/06/2020 00:00;1;27;27;35.89;50.00
10/06/2020 00:30;1;22;22;38.82;52.00
10/06/2020 01:00;1;14;14;37.00;46.00
10/06/2020 01:30;1;9;9;39.67;52.00
10/06/2020 02:00;1;9;9;41.89;59.00
10/06/2020 02:30;1;5;5;42.20;50.00
10/06/2020 03:00;1;2;2;47.50;49.00
10/06/2020 03:30;1;8;8;39.62;47.00
10/06/2020 04:00;1;6;6;43.83;61.00
10/06/2020 04:30;1;11;11;40.36;52.00
10/06/2020 05:00;1;27;27;34.63;52.00
10/06/2020 05:30;1;59;59;42.46;63.00
10/06/2020 06:00;1;77;77;40.00;54.00
10/06/2020 06:30;1;107;107;39.39;79.00
10/06/2020 07:00;1;102;102;38.53;53.00
10/06/2020 07:30;1;155;155;35.52;54.00
10/06/2020 08:00;1;140;140;33.98;48.00
10/06/2020 08:30;1;169;169;33.44;50.00
10/06/2020 09:00;1;166;166;34.13;60.00
10/06/2020 09:30;1;181;181;34.71;52.00
10/06/2020 10:00;1;190;190;31.86;49.00
10/06/2020 10:30;1;185;185;31.92;59.00
10/06/2020 11:00;1;209;209;32.10;51.00
10/06/2020 11:30;1;183;183;32.37;54.00
10/06/2020 12:00;1;176;176;31.48;48.00
10/06/2020 12:30;1;168;168;31.71;52.00
10/06/2020 13:00;1;235;235;33.27;54.00
10/06/2020 13:30;1;206;206;33.18;52.00
10/06/2020 14:00;1;203;203;31.90;48.00
10/06/2020 14:30;1;210;210;32.58;48.00
10/06/2020 15:00;1;208;208;32.53;57.00
10/06/2020 15:30;1;209;209;33.23;54.00
10/06/2020 16:00;1;219;219;32.39;56.00
10/06/2020 16:30;1;230;230;32.01;54.00
10/06/2020 17:00;1;224;224;32.14;51.00
10/06/2020 17:30;1;236;236;32.81;55.00
10/06/2020 18:00;1;207;207;32.59;57.00
10/06/2020 18:30;1;188;188;34.56;53.00
10/06/2020 19:00;1;178;178;35.66;65.00
10/06/2020 19:30;1;141;141;34.95;64.00
10/06/2020 20:00;1;130;130;34.23;54.00
10/06/2020 20:30;1;124;124;35.28;49.00
10/06/2020 21:00;1;130;130;38.80;119.00
10/06/2020 21:30;1;92;92;38.58;69.00
10/06/2020 22:00;1;82;82;37.63;67.00
10/06/2020 22:30;1;52;52;40.90;58.00
10/06/2020 23:00;1;50;50;36.88;56.00
10/06/2020 23:30;1;55;55;39.36;60.00
11/06/2020 00:00;1;37;37;41.14;60.00
11/06/2020 00:30;1;27;27;37.96;67.00
11/06/2020 01:00;1;29;29;37.55;57.00
11/06/2020 01:30;1;10;10;35.60;45.00
11/06/2020 02:00;1;18;18;38.61;55.00
11/06/2020 02:30;1;8;8;45.62;56.00
11/06/2020 03:00;1;9;9;42.00;54.00
11/06/2020 03:30;1;6;6;36.67;55.00
11/06/2020 04:00;1;15;15;41.13;53.00
11/06/2020 04:30;1;9;9;42.22;54.00
11/06/2020 05:00;1;10;10;37.60;55.00
11/06/2020 05:30;1;24;24;41.04;68.00
11/06/2020 06:00;1;39;39;41.13;48.00
11/06/2020 06:30;1;34;34;39.26;51.00
11/06/2020 07:00;1;32;32;39.56;51.00
11/06/2020 07:30;1;40;40;37.38;54.00
11/06/2020 08:00;1;33;33;36.91;48.00
11/06/2020 08:30;1;43;43;36.88;49.00
11/06/2020 09:00;1;65;65;36.68;49.00
11/06/2020 09:30;1;90;90;39.32;69.00
11/06/2020 10:00;1;65;65;38.32;60.00
11/06/2020 10:30;1;97;97;38.21;98.00
11/06/2020 11:00;1;96;96;39.75;59.00
11/06/2020 11:30;1;115;115;37.81;58.00
11/06/2020 12:00;1;129;129;38.29;54.00
11/06/2020 12:30;1;105;105;38.27;55.00
11/06/2020 13:00;1;123;123;36.33;54.00
11/06/2020 13:30;1;114;114;38.31;68.00
11/06/2020 14:00;1;153;153;34.95;58.00
11/06/2020 14:30;1;143;143;38.89;79.00
11/06/2020 15:00;1;131;131;37.02;56.00
11/06/2020 15:30;1;138;138;35.46;60.00
11/06/2020 16:00;1;124;124;35.87;52.00
11/06/2020 16:30;1;113;113;36.05;53.00
11/06/2020 17:00;1;131;131;37.83;54.00
11/06/2020 17:30;1;138;138;37.69;64.00
11/06/2020 18:00;1;154;154;36.45;81.00
11/06/2020 18:30;1;143;143;36.62;67.00
11/06/2020 19:00;1;117;117;37.73;78.00
11/06/2020 19:30;1;120;120;37.45;60.00
11/06/2020 20:00;1;103;103;38.56;73.00
11/06/2020 20:30;1;130;130;37.37;57.00
11/06/2020 21:00;1;99;99;39.29;63.00
11/06/2020 21:30;1;83;83;40.77;74.00
11/06/2020 22:00;1;85;85;37.71;71.00
11/06/2020 22:30;1;66;66;38.71;75.00
11/06/2020 23:00;1;56;56;39.07;60.00
11/06/2020 23:30;1;46;46;38.26;53.00
12/06/2020 00:00;1;36;36;40.19;73.00
12/06/2020 00:30;1;18;18;40.61;71.00
12/06/2020 01:00;1;20;20;43.60;68.00
12/06/2020 01:30;1;13;13;36.23;46.00
12/06/2020 02:00;1;15;15;43.20;68.00
12/06/2020 02:30;1;7;7;39.43;55.00
12/06/2020 03:00;1;4;4;36.00;45.00
12/06/2020 03:30;1;8;8;45.38;60.00
12/06/2020 04:00;1;6;6;37.33;44.00
12/06/2020 04:30;1;8;8;43.25;51.00
12/06/2020 05:00;1;20;20;36.65;54.00
12/06/2020 05:30;1;55;55;40.71;71.00
12/06/2020 06:00;1;62;62;40.08;60.00
12/06/2020 06:30;1;79;79;38.05;52.00
12/06/2020 07:00;1;91;91;37.51;61.00
12/06/2020 07:30;1;130;130;36.24;60.00
12/06/2020 08:00;1;140;140;34.51;52.00
12/06/2020 08:30;1;142;142;34.18;64.00
12/06/2020 09:00;1;173;173;33.41;51.00
12/06/2020 09:30;1;180;180;34.12;51.00
12/06/2020 10:00;1;200;200;31.93;53.00
12/06/2020 10:30;1;213;213;33.74;70.00
12/06/2020 11:00;1;181;181;31.52;50.00
12/06/2020 11:30;1;180;180;32.05;53.00
12/06/2020 12:00;1;182;182;33.90;65.00
12/06/2020 12:30;1;196;196;32.65;64.00
12/06/2020 13:00;1;170;170;34.48;56.00
12/06/2020 13:30;1;193;193;33.27;50.00
12/06/2020 14:00;1;189;189;33.53;54.00
12/06/2020 14:30;1;185;185;32.47;57.00
12/06/2020 15:00;1;208;208;33.86;82.00
12/06/2020 15:30;1;226;226;33.92;60.00
12/06/2020 16:00;1;205;205;34.17;58.00
12/06/2020 16:30;1;210;210;33.49;66.00
12/06/2020 17:00;1;196;196;35.61;94.00
12/06/2020 17:30;1;170;170;32.92;52.00
12/06/2020 18:00;1;188;188;35.29;59.00
12/06/2020 18:30;1;193;193;35.96;64.00
12/06/2020 19:00;1;165;165;33.10;63.00
12/06/2020 19:30;1;156;156;33.92;62.00
12/06/2020 20:00;1;146;146;31.99;56.00
12/06/2020 20:30;1;122;122;32.66;61.00
12/06/2020 21:00;1;128;128;36.85;58.00
12/06/2020 21:30;1;114;114;36.84;56.00
12/06/2020 22:00;1;107;107;38.10;71.00
12/06/2020 22:30;1;89;89;37.20;77.00
12/06/2020 23:00;1;74;74;38.69;60.00
12/06/2020 23:30;1;59;59;37.93;75.00
13/06/2020 00:00;1;50;50;38.84;60.00
13/06/2020 00:30;1;34;34;44.85;67.00
13/06/2020 01:00;1;26;26;40.38;52.00
13/06/2020 01:30;1;13;13;39.85;57.00
13/06/2020 02:00;1;19;19;42.95;55.00
13/06/2020 02:30;1;11;11;39.55;51.00
13/06/2020 03:00;1;13;13;45.00;66.00
13/06/2020 03:30;1;12;12;48.42;72.00
13/06/2020 04:00;1;10;10;49.50;66.00
13/06/2020 04:30;1;7;7;35.57;47.00
13/06/2020 05:00;1;12;12;41.25;56.00
13/06/2020 05:30;1;23;23;40.17;48.00
13/06/2020 06:00;1;34;34;38.35;57.00
13/06/2020 06:30;1;38;38;36.45;50.00
13/06/2020 07:00;1;41;41;40.76;94.00
13/06/2020 07:30;1;80;80;37.79;53.00
13/06/2020 08:00;1;95;95;36.65;59.00
13/06/2020 08:30;1;118;118;35.57;56.00
13/06/2020 09:00;1;148;148;34.47;75.00
13/06/2020 09:30;1;152;152;32.83;57.00
13/06/2020 10:00;1;158;158;33.86;51.00
13/06/2020 10:30;1;182;182;34.30;64.00
13/06/2020 11:00;1;180;180;34.24;61.00
13/06/2020 11:30;1;159;159;34.01;50.00
13/06/2020 12:00;1;202;202;35.14;64.00
13/06/2020 12:30;1;204;204;34.44;67.00
13/06/2020 13:00;1;196;196;33.79;52.00
13/06/2020 13:30;1;174;174;34.99;92.00
13/06/2020 14:00;1;177;177;36.52;60.00
13/06/2020 14:30;1;164;164;35.46;64.00
13/06/2020 15:00;1;192;192;35.35;57.00
13/06/2020 15:30;1;184;184;35.94;52.00
13/06/2020 16:00;1;151;151;30.72;66.00
13/06/2020 16:30;1;137;137;34.84;56.00
13/06/2020 17:00;1;167;167;36.01;64.00
13/06/2020 17:30;1;170;170;35.96;54.00
13/06/2020 18:00;1;178;178;34.74;52.00
13/06/2020 18:30;1;194;194;34.43;51.00
13/06/2020 19:00;1;193;193;35.72;62.00
13/06/2020 19:30;1;182;182;35.54;63.00
13/06/2020 20:00;1;105;105;37.82;64.00
13/06/2020 20:30;1;104;104;36.49;77.00
13/06/2020 21:00;1;98;98;37.91;57.00
13/06/2020 21:30;1;97;97;37.92;60.00
13/06/2020 22:00;1;87;87;41.09;64.00
13/06/2020 22:30;1;61;61;39.13;82.00
13/06/2020 23:00;1;53;53;38.51;65.00
13/06/2020 23:30;1;57;57;41.47;76.00
14/06/2020 00:00;1;34;34;40.12;65.00
14/06/2020 00:30;1;38;38;40.24;50.00
14/06/2020 01:00;1;37;37;41.46;59.00
14/06/2020 01:30;1;17;17;43.41;65.00
14/06/2020 02:00;1;14;14;43.57;67.00
14/06/2020 02:30;1;16;16;44.50;85.00
14/06/2020 03:00;1;18;18;43.17;63.00
14/06/2020 03:30;1;7;7;43.57;62.00
14/06/2020 04:00;1;12;12;50.42;77.00
14/06/2020 04:30;1;4;4;42.25;47.00
14/06/2020 05:00;1;12;12;40.75;52.00
14/06/2020 05:30;1;13;13;50.54;66.00
14/06/2020 06:00;1;19;19;36.47;58.00
14/06/2020 06:30;1;30;30;41.53;61.00
14/06/2020 07:00;1;16;16;39.50;50.00
14/06/2020 07:30;1;28;28;37.64;48.00
14/06/2020 08:00;1;26;26;37.08;48.00
14/06/2020 08:30;1;41;41;39.61;86.00
14/06/2020 09:00;1;66;66;39.92;59.00
14/06/2020 09:30;1;78;78;38.73;55.00
14/06/2020 10:00;1;90;90;39.83;58.00
14/06/2020 10:30;1;104;104;37.94;51.00
14/06/2020 11:00;1;116;116;37.59;62.00
14/06/2020 11:30;1;115;115;38.60;64.00
14/06/2020 12:00;1;110;110;37.57;50.00
14/06/2020 12:30;1;111;111;39.09;57.00
14/06/2020 13:00;1;131;131;37.28;61.00
14/06/2020 13:30;1;107;107;37.55;54.00
14/06/2020 14:00;1;127;127;37.12;52.00
14/06/2020 14:30;1;141;141;37.41;50.00
14/06/2020 15:00;1;123;123;37.67;67.00
14/06/2020 15:30;1;133;133;37.80;66.00
14/06/2020 16:00;1;147;147;37.48;69.00
14/06/2020 16:30;1;143;143;38.37;59.00
14/06/2020 17:00;1;132;132;36.83;64.00
14/06/2020 17:30;1;124;124;37.23;53.00
14/06/2020 18:00;1;147;147;36.42;50.00
14/06/2020 18:30;1;127;127;38.72;57.00
14/06/2020 19:00;1;105;105;38.74;58.00
14/06/2020 19:30;1;125;125;38.21;54.00
14/06/2020 20:00;1;116;116;39.31;66.00
14/06/2020 20:30;1;113;113;38.15;53.00
14/06/2020 21:00;1;77;77;39.12;54.00
14/06/2020 21:30;1;64;64;38.41;53.00
14/06/2020 22:00;1;67;67;39.81;77.00
14/06/2020 22:30;1;53;53;37.74;58.00
14/06/2020 23:00;1;40;40;38.52;64.00
14/06/2020 23:30;1;26;26;38.46;57.00
15/06/2020 00:00;1;24;24;38.42;52.00
15/06/2020 00:30;1;12;12;48.42;83.00
15/06/2020 01:00;1;11;11;37.91;58.00
15/06/2020 01:30;1;8;8;42.25;58.00
15/06/2020 02:00;1;7;7;34.29;46.00
15/06/2020 02:30;1;1;1;38.00;38.00
15/06/2020 03:00;1;4;4;44.75;60.00
15/06/2020 03:30;1;10;10;40.40;47.00
15/06/2020 04:00;1;8;8;38.38;44.00
15/06/2020 04:30;1;10;10;39.70;59.00
15/06/2020 05:00;1;22;22;36.00;44.00
15/06/2020 05:30;1;53;53;44.06;64.00
15/06/2020 06:00;1;80;80;38.44;55.00
15/06/2020 06:30;1;119;119;36.62;60.00
15/06/2020 07:00;1;132;132;37.20;54.00
15/06/2020 07:30;1;186;186;34.41;50.00
15/06/2020 08:00;1;174;174;33.16;52.00
15/06/2020 08:30;1;177;177;34.49;54.00
15/06/2020 09:00;1;181;181;34.05;50.00
15/06/2020 09:30;1;186;186;33.95;55.00
15/06/2020 10:00;1;202;202;32.43;51.00
15/06/2020 10:30;1;203;203;32.15;52.00
15/06/2020 11:00;1;179;179;31.59;62.00
15/06/2020 11:30;1;176;176;30.19;45.00
15/06/2020 12:00;1;199;199;32.30;54.00
15/06/2020 12:30;1;211;211;33.59;52.00
15/06/2020 13:00;1;204;204;32.07;62.00
15/06/2020 13:30;1;195;195;31.44;50.00
15/06/2020 14:00;1;213;213;32.52;49.00
15/06/2020 14:30;1;201;201;35.11;53.00
15/06/2020 15:00;1;221;221;34.33;60.00
15/06/2020 15:30;1;215;215;33.78;68.00
15/06/2020 16:00;1;230;230;32.25;51.00
15/06/2020 16:30;1;227;227;31.57;48.00
15/06/2020 17:00;1;237;237;33.71;50.00
15/06/2020 17:30;1;233;233;33.01;52.00
15/06/2020 18:00;1;243;243;34.47;61.00
15/06/2020 18:30;1;222;222;36.10;51.00
15/06/2020 19:00;1;158;158;32.51;67.00
15/06/2020 19:30;1;120;120;35.60;68.00
15/06/2020 20:00;1;134;134;35.19;52.00
15/06/2020 20:30;1;101;101;36.91;69.00
15/06/2020 21:00;1;93;93;37.57;78.00
15/06/2020 21:30;1;73;73;39.19;64.00
15/06/2020 22:00;1;67;67;36.12;57.00
15/06/2020 22:30;1;56;56;37.36;48.00
15/06/2020 23:00;1;43;43;40.12;62.00
15/06/2020 23:30;1;26;26;38.85;66.00
16/06/2020 00:00;1;20;20;39.10;62.00
16/06/2020 00:30;1;10;10;37.60;46.00
16/06/2020 01:00;1;16;16;36.38;50.00
16/06/2020 01:30;1;9;9;45.44;68.00
16/06/2020 02:00;1;7;7;45.00;64.00
16/06/2020 02:30;1;5;5;38.00;47.00
16/06/2020 03:00;1;6;6;35.33;43.00
16/06/2020 03:30;1;10;10;39.00;45.00
16/06/2020 04:00;1;7;7;47.57;68.00
16/06/2020 04:30;1;13;13;44.23;54.00
16/06/2020 05:00;1;21;21;35.19;47.00
16/06/2020 05:30;1;59;59;38.98;51.00
16/06/2020 06:00;1;77;77;37.97;52.00
16/06/2020 06:30;1;119;119;36.92;52.00
16/06/2020 07:00;1;139;139;37.41;55.00
16/06/2020 07:30;1;184;184;33.88;51.00
16/06/2020 08:00;1;164;164;35.04;57.00
16/06/2020 08:30;1;156;156;31.92;52.00
16/06/2020 09:00;1;165;165;32.97;51.00
16/06/2020 09:30;1;188;188;33.01;48.00
16/06/2020 10:00;1;200;200;33.15;63.00
16/06/2020 10:30;1;193;193;32.49;66.00
16/06/2020 11:00;1;186;186;32.26;46.00
16/06/2020 11:30;1;214;214;32.75;57.00
16/06/2020 12:00;1;194;194;32.49;53.00
16/06/2020 12:30;1;216;216;32.62;50.00
16/06/2020 13:00;1;204;204;32.82;51.00
16/06/2020 13:30;1;204;204;32.36;52.00
16/06/2020 14:00;1;207;207;32.92;52.00
16/06/2020 14:30;1;221;221;32.46;48.00